Location: Brachbach
(49.1847°N, 9.7240°E)
Time: 06:19:00
(UTC+00:00)

PCSat - Pass Details

Date: 16 March 2026
Orbit: 780 x 790 km, 67.1° (Epoch: 13 April)

Event Time Altitude Azimuth Distance (km) Brightness Sun altitude
Exits shadow 01:39:52 10° 331° (NNW) 2,388 12.2 -35.1°
Reaches altitude 10° 01:40:03 10° 333° (NNW) 2,363 12.2 -35.1°
Maximum altitude 01:41:59 12° 354° (N) 2,239 12.3 -34.8°
Drops below altitude 10° 01:43:56 10° 15° (NNE) 2,365 12.7 -34.6°
Sets 01:48:11 0° 47° (NE) 3,295 13.8 -34.2°
